Location: Aldenham
(51.6667°N, 0.3500°W)
Time: 02:04:51
(UTC+00:00)

Tiros 1 - All Passes

Search period start: 07 February 2026 00:00
Search period end: 17 February 2026 00:00
Orbit: 618 x 649 km, 48.4° (Epoch: 6 February)

Date Brightness Start Highest point End Pass type
(mag) Time Alt. Az. Time Alt. Az. Time Alt. Az.
7 Feb - 12:54:27 10° SSW 12:58:14 26° SSE 13:02:00 10° E daylight
7 Feb - 14:35:09 10° WSW 14:39:35 52° S 14:44:01 10° E daylight
7 Feb - 16:16:45 10° W 16:21:11 53° S 16:25:38 10° ESE daylight
7 Feb - 17:58:43 10° W 18:02:32 26° SSW 18:06:21 10° SSE visible
8 Feb - 11:36:19 10° S 11:38:36 14° SE 11:40:54 10° ESE daylight
8 Feb - 13:15:25 10° SW 13:19:38 38° SSE 13:23:50 10° E daylight
8 Feb - 14:56:39 10° WSW 15:01:08 58° S 15:05:37 10° E daylight
8 Feb - 16:38:23 10° W 16:42:41 42° SSW 16:47:00 10° SE daylight
8 Feb - 18:20:55 10° WSW 18:23:48 17° SW 18:26:42 10° S visible
9 Feb - 11:56:16 10° SSW 11:59:49 23° SSE 12:03:24 10° E daylight
9 Feb - 13:36:42 10° WSW 13:41:06 50° SSE 13:45:31 10° E daylight
9 Feb - 15:18:14 10° W 15:22:42 55° S 15:27:10 10° ESE daylight
9 Feb - 17:00:08 10° W 17:04:06 30° SSW 17:08:05 10° SSE daylight
10 Feb - 10:38:45 10° SSE 10:40:15 11° SE 10:41:45 10° ESE daylight
10 Feb - 12:17:04 10° SW 12:21:10 34° SSE 12:25:18 10° E daylight
10 Feb - 13:58:11 10° WSW 14:02:39 57° S 14:07:07 10° E daylight
10 Feb - 15:39:52 10° W 15:44:14 45° SSW 15:48:35 10° ESE daylight
10 Feb - 17:22:10 10° W 17:25:25 19° SW 17:28:40 10° S daylight
11 Feb - 10:58:07 10° SSW 11:01:25 20° SE 11:04:44 10° E daylight
11 Feb - 12:38:16 10° WSW 12:42:38 46° SSE 12:47:00 10° E daylight
11 Feb - 14:19:44 10° W 14:24:13 57° S 14:28:41 10° ESE daylight
11 Feb - 16:01:35 10° W 16:05:40 33° SSW 16:09:46 10° SE daylight
11 Feb - 17:45:19 10° WSW 17:46:35 11° SW 17:47:51 10° SSW visible
12 Feb - 11:18:44 10° SW 11:22:44 30° SSE 11:26:43 10° E daylight
12 Feb - 12:59:41 10° WSW 13:04:09 56° S 13:08:37 10° E daylight
12 Feb - 14:41:21 10° W 14:45:45 49° SSW 14:50:09 10° ESE daylight
12 Feb - 16:23:29 10° W 16:27:00 22° SSW 16:30:32 10° SSE daylight
13 Feb - 10:00:03 10° S 10:03:01 17° SE 10:05:59 10° ESE daylight
13 Feb - 11:39:50 10° SW 11:44:09 43° SSE 11:48:28 10° E daylight
13 Feb - 13:21:14 10° W 13:25:42 58° S 13:30:12 10° ESE daylight
13 Feb - 15:03:01 10° W 15:07:13 37° SSW 15:11:25 10° SE daylight
13 Feb - 16:46:02 10° WSW 16:48:13 13° SW 16:50:23 10° SSW daylight
14 Feb - 10:20:26 10° SSW 10:24:18 27° SSE 10:28:08 10° E daylight
14 Feb - 12:01:12 10° WSW 12:05:39 53° S 12:10:06 10° E daylight
14 Feb - 13:42:49 10° W 13:47:15 52° S 13:51:41 10° ESE daylight
14 Feb - 15:24:51 10° W 15:28:35 25° SSW 15:32:19 10° SSE daylight
15 Feb - 09:02:06 10° S 09:04:38 15° SE 09:07:09 10° ESE daylight
15 Feb - 10:41:25 10° SW 10:45:40 39° SSE 10:49:55 10° E daylight
15 Feb - 12:22:43 10° WSW 12:27:12 58° S 12:31:41 10° E daylight
15 Feb - 14:04:27 10° W 14:08:45 41° SSW 14:13:01 10° SE daylight
15 Feb - 15:47:06 10° WSW 15:49:50 16° SW 15:52:32 10° S daylight
16 Feb - 09:22:10 10° SSW 09:25:51 24° SSE 09:29:31 10° E daylight
16 Feb - 11:02:43 10° WSW 11:07:09 51° SSE 11:11:34 10° E daylight
16 Feb - 12:44:17 10° W 12:48:45 54° S 12:53:11 10° ESE daylight
16 Feb - 14:26:13 10° W 14:30:08 29° SSW 14:34:03 10° SSE daylight
